Regional Weather Roundup
Issued by NWS

Home | Current Version | Previous Version | Text Only | Print | Product List | Glossary Off
Versions: 1 2 3 4 5 6 7 8 9 10 11 12 13 14 15 16 17 18 19 20 21 22 23 24 25 26 27 28 29 30 31 32 33 34 35 36 37 38 39 40 41 42 43 44 45 46 47 48 49 50

777
ASUS44 KLIX 261907
RWRLA
LOUISIANA WEATHER ROUNDUP
NATIONAL WEATHER SERVICE NEW ORLEANS LA
200 PM CDT THU MAR 26 2015

NOTE: "FAIR" INDICATES FEW OR NO CLOUDS BELOW 12,000 FEET WITH NO
      SIGNIFICANT WEATHER AND/OR OBSTRUCTIONS TO VISIBILITY.
      SKY/WX - SKY CONDITION AND SIGNIFICANT WEATHER.
      TMP - AIR TEMPERATURE.    DP   - DEWPOINT TEMPERATURE.
      RH  - RELATIVE HUMIDITY.  PRES - PRESSURE.
      HX  - HEAT INDEX.         WCI  - WIND CHILL INDEX.

*  THESE STATIONS ARE NOT NWS OR FAA STATIONS AND ARE NOT UNDER
   NWS QUALITY CONTROL.

LAZ040-048-061>063-065-066-069-262000-
SOUTHEAST LOUISIANA

CITY           SKY/WX    TMP DP  RH WIND       PRES   REMARKS
N.O. AUDUBON   NOT AVBL
N.O. INTL ARPT LGT RAIN  64  59  83 SW10      29.90F
N.O. LAKEFRONT LGT RAIN  67  61  81 SW13      29.88F
SLIDELL        LGT RAIN  69  66  90 CALM      29.83F
BATON ROUGE    CLOUDY    71  66  84 CALM      29.86F
BOOTHVILLE     LGT RAIN  68  65  90 SW8       29.88F
BELLE CHASSE   RAIN      65  60  84 S12       29.87F FOG
BOGALUSA*      LGT RAIN  73  65  78 SW6       29.88F
GALLIANO*      CLOUDY    63  62  97 MISG      29.93R
NEW ROADS*     DRIZZLE   72  66  82 SE6       29.86F
GONZALES*      LGT RAIN  66  66 100 S7        29.88F
HAMMOND*       CLOUDY    73  66  78 SW7       29.86F
HOUMA*         PTSUNNY   63  63 100 SW3       29.93R FOG
PORT FOURCHON*   N/A    N/A N/A N/A MISG      29.92F

$$

LAZ041-044-053-054-262000-
SOUTHWEST LOUISIANA

CITY           SKY/WX    TMP DP  RH WIND       PRES   REMARKS
LAKE CHARLES   CLOUDY    71  63  75 N9        29.87S
LAFAYETTE      CLOUDY    69  65  86 S8        29.89R
PATTERSON      CLOUDY    63  61  94 W12       29.94R THUNDER
SALT POINT       N/A     61  61 100 S5        29.92R
NEW IBERIA     TSTM      68  65  90 S13       29.89F
CHENAULT AIRPK CLOUDY    70  64  83 N13       29.88F

$$

LAZ027-028-262000-
CENTRAL LOUISIANA

CITY           SKY/WX    TMP DP  RH WIND       PRES   REMARKS
FORT POLK      NOT AVBL
ALEXANDRIA INT CLOUDY    70  63  78 NW14      29.86S
ALEXANDRIA     LGT RAIN  69  62  78 VRB6      29.87S

$$

LAZ001-002-262000-
NORTHWEST LOUISIANA

CITY           SKY/WX    TMP DP  RH WIND       PRES   REMARKS
SHREVEPORT     CLOUDY    57  51  80 N21G28    29.97R
BARKSDALE AFB  NOT AVBL
DTN SHREVEPORT CLOUDY    55  50  83 NW15G22   29.98R

$$

LAZ014-016-262000-
NORTHEAST LOUISIANA

CITY           SKY/WX    TMP DP  RH WIND       PRES   REMARKS
MONROE         LGT RAIN  65  63  93 N9        29.88F FOG
TALLULAH       LGT RAIN  67  63  87 NW5       29.86S FOG

$$




USA.gov is the U.S. government's official web portal to all federal, state and local government web resources and services.